map of BKE home
BKE - Airport
Location
City:  Baker City, Oregon, United States
Name:Baker City Municipal Airport
ICAO:KBKE
IATA:BKE
FAA LID:BKE

Details
Type:Airport (Airfield)
Use:Public/Civil
Latitude:4450'14"N (44.837333)
Longitude:11748'33"W (-117.809138)
Datum:WGS 1984
Elevation:3373 ft (1028 m)
Variation:13.96E (WMM2015 magnetic declination)
-0.12 annual change
Runways:3
Longest:5085 × 100 ft (1550 × 30.5 m), paved

Time
Time Zone:UTC-8 (DST-7)
Local Time:

Weather
METAR:KBKE 180753Z AUTO 00000KT 7SM CLR 01/M01 A3022 RMK AO2 SLP235 T00061011 402111039
TAF:KBKE 180533Z 1806/1906 VRB03KT P6SM SKC

Related Locations
Nearby:
Farthest:FTU: 10824 mi / 17420 km
Tolagnaro [Maurillac Airport (Fort Dauphin Airport)], MG

Find:

   beyond  
but within

Other Information
Maps:
NOTAMs:
Links:
Sources:

  
  • flag of United States
  • flag of Oregon
  

Sectional Chart

Flight Planning
at skyvector.com

Satellite Image

Google Maps Satellite view

 

Copyright © 2004-2018 Karl L. Swartz. All rights reserved.
The Great Circle Mapper name and logo are trademarks of the Great Circle Mapper.
All other trademarks mentioned herein belong to their respective owners.
Please see credits for attibutions and further copyright information.

  Follow gcmap on Facebook Follow gcmap on Twitter Follow gcmap on Google+ GCmap on LinkedIn

hCard Microformat

Geo Microformat